Document Center

Browse Documents
Browse All |  Home
Documents 1-50 of 108
Date Type Title Views Size Info
08/16/2017 pdf Suspect arrested in stabbing 4 518 KB Details icon
08/07/2017 pdf 2017 July Monthly Report-Chief 15 659 KB Details icon
08/01/2017 pdf 2017 July Calls for Service 22 3,124 KB Details icon
07/11/2017 pdf 2017 June Calls for Service 38 3,185 KB Details icon
06/06/2017 pdf 2017 May Crash Comparison 52 382 KB Details icon
06/06/2017 pdf 2017 May Monthly Report-Chief 98 707 KB Details icon
06/01/2017 pdf 2017 May Calls for Service 73 3,318 KB Details icon
05/22/2017 pdf Press Release-Attempted Robbery 112 582 KB Details icon
05/17/2017 pdf 2017 April Monthly Report-Chief 136 581 KB Details icon
05/17/2017 pdf 2017 April Crash Comparison 94 389 KB Details icon
05/17/2017 pdf 2017 March Crash Comparison 78 392 KB Details icon
05/01/2017 pdf 2017 April Calls for Service 107 3,015 KB Details icon
04/24/2017 pdf 2017 Grand Prix Weekend 134 1,456 KB Details icon
04/03/2017 pdf 2017 March Calls for Service 107 2,980 KB Details icon
03/06/2017 pdf 2017 February Monthly Report-Chief 149 738 KB Details icon
03/06/2017 pdf 2017 February Crash Comparison 121 382 KB Details icon
03/01/2017 pdf 2017 February Calls for Service 110 3,466 KB Details icon
02/06/2017 pdf 2017 January Crash Comparison 122 371 KB Details icon
02/01/2017 pdf 2017 January Calls for Service 139 2,963 KB Details icon
01/26/2017 pdf 2016 Annual Report 207 6,679 KB Details icon
01/19/2017 pdf 2016 December Crash Comparison 113 381 KB Details icon
01/03/2017 pdf 2016 December Monthly Report-Chief 189 657 KB Details icon
01/03/2017 pdf 2016 December Calls for Service 124 2,867 KB Details icon
12/08/2016 pdf 2016 November Crash Comparison 119 369 KB Details icon
12/05/2016 pdf 2016 November Monthly Report-Chief 146 607 KB Details icon
12/01/2016 pdf 2016 November Calls for Service 113 2,686 KB Details icon
11/15/2016 pdf 2016 October Crash Comparison 144 371 KB Details icon
11/14/2016 pdf Purdue vs. Northwestern Football Weekend 131 1,433 KB Details icon
11/07/2016 pdf 2016 October Monthly Report-Chief 167 758 KB Details icon
11/01/2016 pdf 2016 October Calls for Service 157 2,963 KB Details icon
10/31/2016 pdf Purdue vs. Penn State Football Weekend 131 1,429 KB Details icon
10/17/2016 pdf Purdue vs. Iowa Football Weekend 138 1,631 KB Details icon
10/07/2016 pdf 2016 September Crash Comparison 130 415 KB Details icon
10/04/2016 pdf Press Release-Strong Arm Robbery 252 649 KB Details icon
10/03/2016 pdf 2016 September Monthly Report-Chief 134 594 KB Details icon
10/03/2016 pdf 2016 September Calls for Service 118 3,101 KB Details icon
09/26/2016 pdf Purdue vs. Nevada Football Weekend 125 1,731 KB Details icon
09/15/2016 pdf Purdue vs. Eastern Kentucky Football Weekend 111 1,500 KB Details icon
09/15/2016 pdf Purdue vs. Cincinnati Football Weekend 116 1,532 KB Details icon
09/12/2016 pdf 2016 August Calls for Service 135 3,222 KB Details icon
09/12/2016 pdf 2016 August Crash Comparison 144 376 KB Details icon
09/12/2016 pdf 2016 July Crash Comparison 140 383 KB Details icon
09/12/2016 pdf 2016 August Monthly Report-Chief 147 736 KB Details icon
08/01/2016 pdf 2016 July Monthly Report-Chief 181 280 KB Details icon
08/01/2016 pdf 2016 July Calls for Service 156 591 KB Details icon
07/08/2016 pdf 2016 June Crash Comparison 167 378 KB Details icon
07/05/2016 pdf 2016 June Calls for Service 167 2,822 KB Details icon
07/05/2016 pdf 2016 June Monthly Report-Chief 174 659 KB Details icon
06/09/2016 pdf 2016 May Crash Comparison 226 375 KB Details icon
06/08/2016 pdf 2016 May Monthly Report-Chief 163 634 KB Details icon
Documents 1-50 of 108